Location: Unspecified
(0.0000°N, 0.0000°E)
Time: 12:56:07
(UTC+00:00)

LilacSat-2 - Pass Details

Date: 10 December 2017
Orbit: 515 x 535 km, 97.5° (Epoch: 22 July)

Event Time Altitude Azimuth Distance (km) Brightness Sun altitude
Rises 05:09:59 0° 29° (NNE) 2,669 ? -9.8°
Reaches altitude 10° 05:12:18 10° 41° (NE) 1,780 ? -9.3°
Maximum altitude 05:15:37 28° 101° (E) 1,019 ? -8.5°
Drops below altitude 10° 05:18:57 10° 161° (SSE) 1,781 ? -7.8°
Sets 05:21:15 0° 173° (S) 2,670 ? -7.3°
